Location: Unspecified
(0.0000°N, 0.0000°E)
Time: 00:30:41
(UTC+00:00)

Amateur Radio Satellites - All Passes

Search period start: 21 January 2018 00:00
Search period end: 22 January 2018 00:00
Location: Unspecified, 0.0000°N, 0.0000°E

Satellite Date Start Highest point End Downlink Frequencies (MHz)
Time Altitude Azimuth
POLYITAN 1 21 Jan 00:01:29 00:05:32 44° 282° (WNW) 00:09:36 437.675
FALCONSAT 3 21 Jan 00:05:02 00:08:44 84° 141° (SE) 00:12:24 435.103
NANOSAT C BR1 21 Jan 00:17:43 00:21:27 30° 282° (WNW) 00:25:12 145.865
O/OREOS (USA 219) 21 Jan 00:17:57 00:21:01 18° 284° (WNW) 00:24:06 437.305
BUGSAT 1 21 Jan 00:28:37 00:32:36 41° 102° (ESE) 00:36:34 437.445
QB50P2 21 Jan 00:32:49 00:35:09 14° 282° (WNW) 00:37:30 145.880/145.840
Gurwin Techsat 1B 21 Jan 00:48:28 00:52:59 28° 103° (ESE) 00:57:30 435.225
JUGNU 21 Jan 00:52:00 00:53:23 11° 175° (S) 00:54:44 437.505
Oscar 19 21 Jan 01:04:19 01:09:23 65° 103° (ESE) 01:14:28 437.125/150
SRMSAT 21 Jan 01:07:27 01:10:14 13° 190° (S) 01:12:59 437.500
AO-91 21 Jan 01:25:35 01:30:31 54° 281° (W) 01:35:45 145.960
VELOX 1 21 Jan 01:34:38 01:36:39 13° 257° (WSW) 01:38:39 145.980
UKube-1 21 Jan 01:38:11 01:42:17 44° 78° (ENE) 01:46:21 .
DX 1 21 Jan 01:49:17 01:53:35 62° 258° (WSW) 01:57:52 434.975-435.025
MOZHAYETS 4 21 Jan 01:49:21 01:51:01 12° 78° (ENE) 01:52:41
50 SAT 21 Jan 02:17:26 02:19:14 15° 258° (WSW) 02:21:03 437.505
Gurwin Techsat 1B 21 Jan 02:29:05 02:32:39 18° 283° (WNW) 02:36:13 435.225
JUGNU 21 Jan 02:39:15 02:43:20 19° 165° (SSE) 02:47:23 437.505
ITUPSAT 1 21 Jan 02:50:48 02:55:15 40° 78° (ENE) 02:59:42 437.325
AO-7 21 Jan 02:51:47 02:59:59 63° 106° (ESE) 03:08:10 .
SO-50 21 Jan 03:01:36 03:04:41 18° 113° (ESE) 03:07:45 436.795
NO-84 21 Jan 03:06:28 03:09:22 26° 236° (SW) 03:12:28 435.350 FM
MOZHAYETS 4 21 Jan 03:23:48 03:27:53 31° 258° (WSW) 03:31:57
CUBESAT XI-V 21 Jan 03:26:01 03:30:30 44° 78° (ENE) 03:34:57 437.345
BEESAT 21 Jan 03:30:22 03:35:01 56° 258° (WSW) 03:39:40 436.000
ITAMSAT 1 21 Jan 03:49:09 03:54:14 56° 283° (WNW) 03:59:21 435.822/435.867
DOVE 4 21 Jan 03:56:35 04:00:51 34° 103° (ESE) 04:05:21 437.250
M-CUBED/EXP-1 PRIME 21 Jan 04:07:09 04:10:06 33° 106° (ESE) 04:13:11 437.505
JUGNU 21 Jan 04:27:05 04:32:43 44° 160° (SSE) 04:38:19 437.505
SO-50 21 Jan 04:41:41 04:44:52 19° 292° (WNW) 04:48:04 436.795
AO-7 21 Jan 04:47:39 04:52:18 16° 287° (WNW) 04:56:59 .
SRMSAT 21 Jan 04:48:02 04:50:50 13° 169° (S) 04:53:38 437.500
LilacSat-2 21 Jan 04:50:14 04:51:46 12° 102° (ESE) 04:53:17 437.200
XW-2C 21 Jan 04:52:44 04:54:07 12° 102° (ESE) 04:55:30 145.795 - 145.815
KKS-1 21 Jan 04:53:20 04:57:41 57° 78° (ENE) 05:02:00 437.445
STARS 21 Jan 05:10:09 05:13:52 28° 78° (ENE) 05:17:33 437.465
CUTE-I 21 Jan 05:22:00 05:26:38 31° 103° (ESE) 05:31:17 437.470
KAITUO 1B 21 Jan 05:25:50 05:28:54 25° 102° (ESE) 05:31:57 145.475/437.950
XW-2F 21 Jan 05:27:02 05:30:29 39° 101° (E) 05:33:58 145.980 - 146.000
nSIGHT-1 21 Jan 05:28:10 05:31:16 51° 55° (NE) 05:34:22 .
DOVE 4 21 Jan 05:36:18 05:38:20 13° 280° (W) 05:40:24 437.250
XW-2D 21 Jan 05:36:26 05:40:07 69° 101° (E) 05:43:50 145.860 - 145.880
NUDT-PHONESAT 21 Jan 05:36:41 05:40:00 34° 101° (E) 05:43:21 437.300
ISS 21 Jan 05:41:06 05:44:12 42° 54° (NE) 05:47:20 437.550
XW-2B 21 Jan 05:54:02 05:57:42 61° 281° (W) 06:01:24 145.730 - 145.750
RS-15 21 Jan 06:06:59 06:18:33 53° 110° (ESE) 06:30:19 29.354- 29.394
JUGNU 21 Jan 06:15:54 06:21:47 68° 339° (NNW) 06:27:37 437.505
STRAND 1 21 Jan 06:22:29 06:26:22 22° 77° (ENE) 06:30:13 437.568
LilacSat-2 21 Jan 06:23:06 06:25:45 19° 281° (W) 06:28:24 437.200
XW-2C 21 Jan 06:25:20 06:28:00 19° 281° (WNW) 06:30:40 145.795 - 145.815
SRMSAT 21 Jan 06:35:38 06:40:39 28° 162° (SSE) 06:45:38 437.500
HO-68 21 Jan 06:42:51 06:50:01 88° 285° (WNW) 06:57:13 435.675
SEEDS 21 Jan 06:43:58 06:48:03 60° 101° (E) 06:52:09 437.485
STARS 21 Jan 06:48:17 06:49:54 12° 257° (WSW) 06:51:32 437.465
CUTE 1.7 + AOD 2 21 Jan 06:56:38 07:00:35 42° 281° (WNW) 07:04:33 437.475
CUTE-I 21 Jan 07:03:00 07:06:23 17° 283° (WNW) 07:09:49 437.470
CUBEBUG 2 21 Jan 07:08:29 07:13:05 56° 282° (WNW) 07:17:35 437.445
FO-29 21 Jan 07:08:44 07:15:41 38° 78° (ENE) 07:22:02 435.910
UWE-3 21 Jan 07:13:49 07:18:22 81° 100° (E) 07:22:50 435.000/436.395/437.385
BEESAT 3 21 Jan 07:26:34 07:29:52 26° 112° (ESE) 07:33:10 437.485
XW-2A 21 Jan 07:30:17 07:33:35 81° 104° (ESE) 07:36:53 145.665 - 145.685
PCSat 21 Jan 07:36:05 07:40:22 24° 110° (ESE) 07:44:38 145.827
ZACube-1 21 Jan 07:37:31 07:41:55 73° 101° (ESE) 07:46:14 437.345
AO-73 21 Jan 07:44:16 07:48:39 77° 101° (E) 07:52:57 145.935
AAUSAT CUBESAT 2 21 Jan 08:01:25 08:04:56 28° 281° (WNW) 08:08:30 437.432
STRAND 1 21 Jan 08:01:26 08:05:16 22° 257° (WSW) 08:09:05 437.568
JUGNU 21 Jan 08:06:09 08:10:56 26° 342° (NNW) 08:15:44 437.505
BEESAT 2 21 Jan 08:14:57 08:17:56 21° 112° (ESE) 08:20:56 435.950
Oscar 11 21 Jan 08:17:23 08:21:38 65° 281° (WNW) 08:25:53 .
RS-15 21 Jan 08:20:47 08:30:39 29° 292° (WNW) 08:40:43 29.354- 29.394
SRMSAT 21 Jan 08:24:03 08:29:58 74° 159° (SSE) 08:35:53 437.500
UNISAT 6 21 Jan 08:36:46 08:39:38 17° 78° (ENE) 08:42:31 437.425
DELFI C3 21 Jan 08:37:37 08:40:49 24° 102° (ESE) 08:44:03 145.870
FO-29 21 Jan 08:54:14 09:00:16 26° 255° (WSW) 09:05:57 435.910
BEESAT 3 21 Jan 09:06:28 09:07:07 10° 292° (WNW) 09:07:47 437.485
Max Valier Satellite 21 Jan 09:15:09 09:18:43 54° 102° (ESE) 09:22:17 145.860
PCSat 21 Jan 09:19:21 09:23:28 22° 290° (WNW) 09:27:35 145.827
EO-88 21 Jan 09:33:35 09:37:08 61° 101° (ESE) 09:40:43 145.990 - 145.960
AO-85 21 Jan 09:47:17 09:50:33 26° 112° (ESE) 09:53:47 145.980
BEESAT 2 21 Jan 09:53:29 09:55:22 13° 292° (WNW) 09:57:17 435.950
TIGRISAT 21 Jan 09:56:51 10:00:44 34° 258° (WSW) 10:04:40 435.000
JUGNU 21 Jan 09:58:13 10:00:36 12° 350° (N) 10:03:00 437.505
UNISAT 6 21 Jan 10:13:04 10:16:04 19° 258° (WSW) 10:19:06 437.425
SRMSAT 21 Jan 10:13:40 10:19:11 40° 340° (NNW) 10:24:44 437.500
DELFI C3 21 Jan 10:14:22 10:15:17 11° 281° (WNW) 10:16:11 145.870
YUBILEINY 21 Jan 10:20:28 10:28:58 61° 87° (E) 10:37:29 435.215
PRISM 21 Jan 10:20:38 10:24:44 80° 80° (E) 10:28:48 437.425
ESTCUBE 1 21 Jan 10:33:10 10:36:51 26° 102° (ESE) 10:40:34 437.505/2401.250
O/OREOS (USA 219) 21 Jan 10:48:45 10:52:45 32° 76° (ENE) 10:56:48 437.305
AIST 2D 21 Jan 10:48:47 10:52:20 81° 79° (E) 10:55:51 435.315
NANOSAT C BR1 21 Jan 10:49:58 10:51:30 12° 78° (ENE) 10:53:04 145.865
LO-87 21 Jan 10:52:17 10:55:53 74° 102° (ESE) 10:59:29 145.935 - 145.965
QB50P2 21 Jan 11:02:13 11:05:45 26° 78° (ENE) 11:09:16 145.880/145.840
DUCHIFAT 1 21 Jan 11:31:06 11:35:02 41° 78° (ENE) 11:38:58 145.980
EO-79 21 Jan 11:32:24 11:36:33 66° 79° (E) 11:40:42 145.935-145.965
FALCONSAT 3 21 Jan 11:47:53 11:51:32 78° 39° (NE) 11:55:11 435.103
SPROUT 21 Jan 12:02:34 12:06:50 75° 102° (ESE) 12:11:07 437.525
SRMSAT 21 Jan 12:04:55 12:08:46 18° 346° (NNW) 12:12:39 437.500
VELOX 1 21 Jan 12:07:37 12:11:42 38° 102° (ESE) 12:15:49 145.980
POLYITAN 1 21 Jan 12:07:42 12:11:34 36° 258° (WSW) 12:15:25 437.675
ESTCUBE 1 21 Jan 12:11:08 12:13:23 14° 282° (WNW) 12:15:37 437.505/2401.250
YUBILEINY 21 Jan 12:20:47 12:25:22 15° 267° (W) 12:29:59 435.215
NANOSAT C BR1 21 Jan 12:23:29 12:26:56 25° 258° (WSW) 12:30:23 145.865
O/OREOS (USA 219) 21 Jan 12:31:27 12:31:53 10° 255° (WSW) 12:32:21 437.305
BUGSAT 1 21 Jan 12:31:34 12:35:23 43° 78° (ENE) 12:39:13 437.445
QB50P2 21 Jan 12:39:49 12:41:15 11° 258° (WSW) 12:42:40 145.880/145.840
Gurwin Techsat 1B 21 Jan 13:26:11 13:31:31 83° 78° (ENE) 13:36:49 435.225
AO-7 21 Jan 13:32:39 13:34:05 10° 72° (ENE) 13:35:31 .
JUGNU 21 Jan 13:38:02 13:40:50 14° 11° (N) 13:43:39 437.505
Oscar 19 21 Jan 13:38:05 13:43:03 48° 257° (WSW) 13:48:02 437.125/150
AO-91 21 Jan 13:39:25 13:42:27 25° 257° (WSW) 13:45:19 145.960
UKube-1 21 Jan 13:46:12 13:50:25 58° 102° (ESE) 13:54:40 .
50 SAT 21 Jan 13:51:03 13:54:01 44° 282° (WNW) 13:57:01 437.505
SRMSAT 21 Jan 13:58:00 13:58:55 10° 355° (N) 13:59:50 437.500
DX 1 21 Jan 13:58:49 14:02:57 45° 282° (WNW) 14:07:08 434.975-435.025
MOZHAYETS 4 21 Jan 14:04:16 14:07:35 20° 102° (ESE) 14:10:54
BEESAT 21 Jan 14:16:44 14:19:15 14° 103° (ESE) 14:21:47 436.000
ITAMSAT 1 21 Jan 14:46:00 14:50:05 24° 77° (ENE) 14:54:09 435.822/435.867
NO-84 21 Jan 14:48:37 14:52:00 33° 301° (WNW) 14:55:08 435.350 FM
ITUPSAT 1 21 Jan 15:12:36 15:17:24 81° 104° (ESE) 15:22:12 437.325
SO-50 21 Jan 15:12:47 15:17:11 36° 68° (ENE) 15:21:35 436.795
AO-7 21 Jan 15:17:59 15:26:20 83° 255° (WSW) 15:34:41 .
JUGNU 21 Jan 15:25:24 15:30:26 29° 19° (NNE) 15:35:29 437.505
MOZHAYETS 4 21 Jan 15:41:15 15:44:28 19° 282° (WNW) 15:47:41
CUBESAT XI-V 21 Jan 15:43:59 15:48:33 78° 102° (ESE) 15:53:09 437.345
SRMSAT 21 Jan 15:47:44 15:49:18 11° 6° (N) 15:50:54 437.500
BEESAT 21 Jan 15:52:38 15:56:44 29° 282° (WNW) 16:00:51 436.000
M-CUBED/EXP-1 PRIME 21 Jan 16:04:46 16:09:08 41° 75° (ENE) 16:13:20 437.505
DOVE 4 21 Jan 16:17:31 16:22:10 63° 79° (ENE) 16:26:31 437.250
ITAMSAT 1 21 Jan 16:25:27 16:29:16 21° 257° (WSW) 16:33:05 435.822/435.867
LilacSat-2 21 Jan 16:45:21 16:45:59 10° 79° (ENE) 16:46:37 437.200
SO-50 21 Jan 16:55:35 16:57:25 12° 247° (WSW) 16:59:15 436.795
nSIGHT-1 21 Jan 17:00:12 17:02:57 27° 126° (SE) 17:05:42 .
KKS-1 21 Jan 17:05:26 17:09:54 87° 96° (E) 17:14:24 437.445
JUGNU 21 Jan 17:13:39 17:19:34 77° 20° (NNE) 17:25:33 437.505
ISS 21 Jan 17:15:24 17:18:10 25° 126° (SE) 17:20:54 437.550
KAITUO 1B 21 Jan 17:18:02 17:20:49 20° 79° (E) 17:23:36 145.475/437.950
XW-2F 21 Jan 17:20:01 17:23:25 31° 79° (E) 17:26:48 145.980 - 146.000
STARS 21 Jan 17:20:17 17:24:25 39° 102° (ESE) 17:28:34 437.465
NUDT-PHONESAT 21 Jan 17:27:43 17:30:51 25° 79° (ENE) 17:33:58 437.300
XW-2D 21 Jan 17:29:48 17:33:33 53° 79° (E) 17:37:17 145.860 - 145.880
SRMSAT 21 Jan 17:35:05 17:39:23 20° 15° (NNE) 17:43:40 437.500
XW-2B 21 Jan 17:47:19 17:51:10 81° 258° (WSW) 17:54:59 145.730 - 145.750
RS-15 21 Jan 17:50:54 18:01:10 42° 68° (ENE) 18:11:07 29.354- 29.394
CUTE-I 21 Jan 18:00:39 18:06:02 90° 327° (NNW) 18:11:21 437.470
LilacSat-2 21 Jan 18:16:50 18:19:59 24° 259° (WSW) 18:23:06 437.200
XW-2C 21 Jan 18:18:19 18:21:29 24° 259° (WSW) 18:24:39 145.795 - 145.815
AAUSAT CUBESAT 2 21 Jan 18:31:44 18:33:06 11° 79° (ENE) 18:34:28 437.432
HO-68 21 Jan 18:34:30 18:41:42 79° 76° (ENE) 18:48:51 435.675
FO-29 21 Jan 18:43:51 18:46:40 14° 106° (ESE) 18:49:36 435.910
SEEDS 21 Jan 18:48:55 18:53:09 73° 79° (E) 18:57:22 437.485
KAITUO 1B 21 Jan 18:53:03 18:54:30 12° 258° (WSW) 18:55:57 145.475/437.950
STRAND 1 21 Jan 18:53:48 18:58:50 56° 103° (ESE) 19:03:53 437.568
CUTE 1.7 + AOD 2 21 Jan 19:02:54 19:06:49 34° 258° (WSW) 19:10:42 437.475
JUGNU 21 Jan 19:03:09 19:08:40 39° 200° (SSW) 19:14:13 437.505
XW-2A 21 Jan 19:12:29 19:15:39 36° 79° (E) 19:18:48 145.665 - 145.685
BEESAT 3 21 Jan 19:17:58 19:21:05 24° 68° (ENE) 19:24:11 437.485
CUBEBUG 2 21 Jan 19:21:10 19:24:59 35° 259° (W) 19:28:54 437.445
SRMSAT 21 Jan 19:23:08 19:28:54 48° 20° (NNE) 19:34:40 437.500
UWE-3 21 Jan 19:24:47 19:29:00 70° 258° (WSW) 19:33:20 435.000/436.395/437.385
ZACube-1 21 Jan 19:46:58 19:51:16 81° 261° (W) 19:55:38 437.345
AO-73 21 Jan 19:53:20 19:57:38 79° 259° (W) 20:02:00 145.935
RS-15 21 Jan 20:03:43 20:13:00 32° 249° (WSW) 20:22:16 29.354- 29.394
AAUSAT CUBESAT 2 21 Jan 20:04:48 20:08:16 26° 258° (WSW) 20:11:42 437.432
BEESAT 2 21 Jan 20:07:37 20:10:36 21° 68° (ENE) 20:13:33 435.950
PCSat 21 Jan 20:11:04 20:16:27 76° 71° (ENE) 20:21:51 145.827
Oscar 11 21 Jan 20:26:05 20:30:17 48° 259° (WSW) 20:34:27 .
FO-29 21 Jan 20:26:24 20:31:19 38° 281° (W) 20:36:44 435.910
TIGRISAT 21 Jan 20:34:38 20:37:26 16° 102° (ESE) 20:40:12 435.000
DELFI C3 21 Jan 20:35:38 20:38:43 22° 79° (ENE) 20:41:47 145.870
UNISAT 6 21 Jan 20:48:54 20:52:53 28° 102° (ESE) 20:56:49 437.425
JUGNU 21 Jan 20:54:17 20:58:08 17° 194° (SSW) 21:02:01 437.505
YUBILEINY 21 Jan 21:03:12 21:06:08 12° 93° (E) 21:09:04 435.215
Max Valier Satellite 21 Jan 21:05:55 21:09:22 37° 79° (E) 21:12:49 145.860
SRMSAT 21 Jan 21:12:11 21:18:08 63° 201° (SSW) 21:24:04 437.500
EO-88 21 Jan 21:23:02 21:26:29 39° 79° (E) 21:29:54 145.990 - 145.960
BEESAT 2 21 Jan 21:46:25 21:48:02 12° 248° (WSW) 21:49:37 435.950
AO-85 21 Jan 21:57:37 22:02:54 64° 68° (ENE) 22:08:13 145.980
TIGRISAT 21 Jan 22:10:05 22:13:50 24° 282° (WNW) 22:17:33 435.000
DELFI C3 21 Jan 22:11:49 22:13:09 11° 258° (WSW) 22:14:30 145.870
PRISM 21 Jan 22:22:48 22:26:54 86° 102° (ESE) 22:31:02 437.425
UNISAT 6 21 Jan 22:27:02 22:29:17 13° 282° (WNW) 22:31:32 437.425
AIST 2D 21 Jan 22:34:28 22:37:44 41° 101° (E) 22:41:01 435.315
LO-87 21 Jan 22:39:59 22:43:21 42° 79° (E) 22:46:42 145.935 - 145.965
POLYITAN 1 21 Jan 22:41:24 22:42:06 10° 102° (ESE) 22:42:49 437.675
ESTCUBE 1 21 Jan 22:46:36 22:50:52 40° 78° (ENE) 22:55:07 437.505/2401.250
JUGNU 21 Jan 22:47:09 22:48:10 10° 184° (S) 22:49:10 437.505
YUBILEINY 21 Jan 22:53:44 23:02:33 73° 273° (W) 23:11:20 435.215
NANOSAT C BR1 21 Jan 22:54:37 22:56:58 15° 102° (ESE) 22:59:19 145.865
O/OREOS (USA 219) 21 Jan 22:59:24 23:03:54 57° 104° (ESE) 23:08:20 437.305
SRMSAT 21 Jan 23:02:44 23:07:32 25° 197° (SSW) 23:12:19 437.500
QB50P2 21 Jan 23:08:01 23:11:49 32° 102° (ESE) 23:15:38 145.880/145.840
FALCONSAT 3 21 Jan 23:30:44 23:34:24 73° 143° (SE) 23:38:04 435.103
DUCHIFAT 1 21 Jan 23:36:04 23:40:09 50° 102° (ESE) 23:44:15 145.980
EO-79 21 Jan 23:38:09 23:42:25 81° 103° (ESE) 23:46:40 145.935-145.965
